TimeCDT,TemperatureF,Dew PointF,Humidity,Sea Level PressureIn,VisibilityMPH,Wind Direction,Wind SpeedMPH,Gust SpeedMPH,PrecipitationIn,Events,Conditions,WindDirDegrees,DateUTC
12:15 AM,71.8,62.6,73,30.16,10.0,SE,9.2,-,N/A,,Scattered Clouds,130,2013-09-06 05:15:00
12:35 AM,71.8,62.6,73,30.16,10.0,SE,8.1,-,N/A,,Clear,130,2013-09-06 05:35:00
12:55 AM,71.8,62.6,73,30.16,10.0,SE,6.9,-,N/A,,Clear,140,2013-09-06 05:55:00
1:15 AM,71.8,62.1,71,30.15,10.0,SE,9.2,-,N/A,,Clear,130,2013-09-06 06:15:00
1:35 AM,71.8,62.2,72,30.15,10.0,SE,6.9,-,N/A,,Clear,140,2013-09-06 06:35:00
1:55 AM,71.8,62.6,73,30.15,10.0,SSE,6.9,-,N/A,,Clear,150,2013-09-06 06:55:00
2:15 AM,71.8,62.8,73,30.15,10.0,SSE,6.9,-,N/A,,Clear,150,2013-09-06 07:15:00
2:35 AM,69.3,60.8,74,30.15,10.0,SE,6.9,-,N/A,,Clear,140,2013-09-06 07:35:00
2:55 AM,69.3,60.8,74,30.15,10.0,SE,6.9,-,N/A,,Clear,140,2013-09-06 07:55:00
3:15 AM,69.3,60.8,74,30.15,10.0,SE,6.9,-,N/A,,Clear,140,2013-09-06 08:15:00
3:35 AM,68.2,59.9,75,30.16,10.0,SE,5.8,-,N/A,,Clear,140,2013-09-06 08:35:00
3:55 AM,66.7,58.8,76,30.15,10.0,SE,6.9,-,N/A,,Clear,140,2013-09-06 08:55:00
4:15 AM,66.7,59.0,76,30.16,10.0,SE,6.9,-,N/A,,Clear,140,2013-09-06 09:15:00
4:35 AM,66.7,59.2,77,30.16,10.0,SE,6.9,-,N/A,,Clear,140,2013-09-06 09:35:00
4:55 AM,65.5,58.3,77,30.16,10.0,SE,6.9,-,N/A,,Clear,140,2013-09-06 09:55:00
5:15 AM,65.3,58.5,78,30.16,10.0,SE,6.9,-,N/A,,Clear,140,2013-09-06 10:15:00
5:35 AM,64.8,58.1,79,30.16,10.0,SE,5.8,-,N/A,,Clear,140,2013-09-06 10:35:00
5:55 AM,64.8,58.3,79,30.16,10.0,SSE,5.8,-,N/A,,Clear,150,2013-09-06 10:55:00
6:15 AM,64.6,58.1,79,30.17,10.0,SE,5.8,-,N/A,,Clear,140,2013-09-06 11:15:00
6:35 AM,64.4,58.1,80,30.17,10.0,SE,5.8,-,N/A,,Clear,140,2013-09-06 11:35:00
6:55 AM,64.4,58.1,80,30.17,10.0,SE,5.8,-,N/A,,Clear,140,2013-09-06 11:55:00
7:15 AM,64.4,58.1,80,30.17,10.0,SE,5.8,-,N/A,,Clear,130,2013-09-06 12:15:00
7:35 AM,65.1,58.3,78,30.17,10.0,SE,5.8,-,N/A,,Clear,140,2013-09-06 12:35:00
7:55 AM,66.9,59.0,76,30.17,10.0,SE,4.6,-,N/A,,Clear,140,2013-09-06 12:55:00
8:15 AM,71.2,61.9,72,30.16,10.0,SSE,5.8,-,N/A,,Clear,150,2013-09-06 13:15:00
8:35 AM,71.8,61.0,69,30.16,10.0,SSE,5.8,-,N/A,,Clear,150,2013-09-06 13:35:00
8:55 AM,71.8,59.9,66,30.16,10.0,SSE,6.9,-,N/A,,Clear,150,2013-09-06 13:55:00
9:15 AM,73.9,60.6,63,30.16,10.0,SSE,5.8,-,N/A,,Clear,150,2013-09-06 14:15:00
9:35 AM,76.8,62.4,61,30.16,10.0,SSE,5.8,-,N/A,,Clear,160,2013-09-06 14:35:00
9:55 AM,77.0,61.2,58,30.16,10.0,SSE,6.9,-,N/A,,Clear,150,2013-09-06 14:55:00
10:15 AM,79.0,61.9,56,30.15,10.0,South,5.8,-,N/A,,Clear,180,2013-09-06 15:15:00
10:35 AM,79.3,60.6,53,30.14,10.0,SSW,8.1,-,N/A,,Clear,210,2013-09-06 15:35:00
10:55 AM,81.9,61.7,50,30.14,10.0,SSW,6.9,-,N/A,,Clear,200,2013-09-06 15:55:00
11:15 AM,82.9,60.6,47,30.13,10.0,South,9.2,-,N/A,,Clear,190,2013-09-06 16:15:00
11:35 AM,84.4,60.6,45,30.12,10.0,South,6.9,-,N/A,,Clear,170,2013-09-06 16:35:00
11:55 AM,84.7,59.0,42,30.12,10.0,South,8.1,-,N/A,,Clear,190,2013-09-06 16:55:00
12:15 PM,86.7,58.3,38,30.12,10.0,SSW,8.1,-,N/A,,Clear,200,2013-09-06 17:15:00
12:35 PM,89.6,59.5,36,30.11,10.0,SW,4.6,-,N/A,,Clear,220,2013-09-06 17:35:00
12:55 PM,89.6,58.6,35,30.10,10.0,SSW,8.1,-,N/A,,Clear,210,2013-09-06 17:55:00
1:15 PM,92.3,59.2,33,30.09,10.0,SSW,9.2,-,N/A,,Clear,200,2013-09-06 18:15:00
1:35 PM,92.3,59.5,33,30.08,10.0,SSW,9.2,-,N/A,,Clear,210,2013-09-06 18:35:00
1:55 PM,92.3,58.8,32,30.07,10.0,SSW,9.2,-,N/A,,Clear,200,2013-09-06 18:55:00
2:15 PM,92.3,58.5,32,30.06,10.0,South,9.2,-,N/A,,Clear,190,2013-09-06 19:15:00
2:35 PM,92.3,58.3,32,30.05,10.0,South,8.1,-,N/A,,Clear,180,2013-09-06 19:35:00
2:55 PM,92.3,58.3,32,30.04,10.0,South,5.8,16.1,N/A,,Clear,190,2013-09-06 19:55:00
3:15 PM,92.3,57.4,31,30.03,10.0,SSW,6.9,16.1,N/A,,Clear,210,2013-09-06 20:15:00
3:35 PM,92.3,56.1,29,30.03,10.0,South,9.2,-,N/A,,Clear,180,2013-09-06 20:35:00
3:55 PM,92.3,54.5,28,30.02,10.0,South,9.2,-,N/A,,Clear,180,2013-09-06 20:55:00
4:15 PM,92.3,53.6,27,30.01,10.0,South,10.4,16.1,N/A,,Clear,190,2013-09-06 21:15:00
4:35 PM,92.3,54.7,28,30.01,10.0,SSW,9.2,16.1,N/A,,Clear,210,2013-09-06 21:35:00
4:55 PM,92.3,54.3,28,30.00,10.0,South,9.2,-,N/A,,Clear,170,2013-09-06 21:55:00
5:15 PM,92.3,54.5,28,30.00,10.0,SSW,9.2,-,N/A,,Clear,200,2013-09-06 22:15:00
5:35 PM,92.3,54.5,28,30.00,10.0,South,5.8,-,N/A,,Clear,190,2013-09-06 22:35:00
5:55 PM,92.3,56.5,30,30.00,10.0,SSW,6.9,-,N/A,,Clear,200,2013-09-06 22:55:00
6:15 PM,91.0,57.9,33,30.00,10.0,South,5.8,-,N/A,,Clear,190,2013-09-06 23:15:00
6:35 PM,89.4,57.7,34,29.99,10.0,South,3.5,-,N/A,,Clear,190,2013-09-06 23:35:00
6:55 PM,85.6,55.8,36,29.98,10.0,South,4.6,-,N/A,,Clear,180,2013-09-06 23:55:00
7:15 PM,84.4,57.2,39,29.98,10.0,South,4.6,-,N/A,,Clear,170,2013-09-07 00:15:00
7:35 PM,81.9,59.9,47,29.98,10.0,SSE,5.8,-,N/A,,Clear,160,2013-09-07 00:35:00
7:55 PM,81.9,59.9,47,29.98,10.0,South,5.8,-,N/A,,Clear,170,2013-09-07 00:55:00
8:15 PM,79.7,58.5,48,29.98,10.0,South,5.8,-,N/A,,Clear,170,2013-09-07 01:15:00
8:35 PM,79.3,58.6,49,29.98,10.0,South,5.8,-,N/A,,Clear,170,2013-09-07 01:35:00
8:55 PM,79.3,59.0,50,29.98,10.0,South,5.8,-,N/A,,Clear,170,2013-09-07 01:55:00
9:15 PM,79.3,59.5,51,29.98,10.0,South,6.9,-,N/A,,Clear,170,2013-09-07 02:15:00
9:35 PM,78.8,59.0,51,29.97,10.0,South,5.8,-,N/A,,Clear,170,2013-09-07 02:35:00
9:55 PM,77.0,57.2,50,29.98,10.0,South,5.8,-,N/A,,Clear,190,2013-09-07 02:55:00
10:15 PM,77.0,57.6,51,29.98,10.0,South,4.6,-,N/A,,Clear,180,2013-09-07 03:15:00
10:35 PM,77.0,58.1,52,29.97,10.0,South,4.6,-,N/A,,Clear,170,2013-09-07 03:35:00
10:55 PM,77.0,59.0,54,29.97,10.0,South,5.8,-,N/A,,Clear,180,2013-09-07 03:55:00
11:15 PM,77.0,59.9,55,29.97,10.0,South,6.9,-,N/A,,Clear,170,2013-09-07 04:15:00
11:35 PM,74.3,58.3,57,29.98,10.0,South,6.9,-,N/A,,Clear,180,2013-09-07 04:35:00
11:55 PM,74.3,58.1,57,29.97,10.0,South,9.2,-,N/A,,Clear,170,2013-09-07 04:55:00